Location: Igri�s
(42.2144°N, 0.4320°W)
Time: 18:13:35
(UTC+00:00)

SL-16 R/B - Pass Details

Date: 13 August 2020
Orbit: 843 x 845 km, 71.0° (Epoch: 18 September)

Event Time Altitude Azimuth Distance (km) Brightness Sun altitude
Rises 22:07:41 0° 330° (NNW) 3,413 6.7 -27.2°
Reaches altitude 10° 22:10:13 10° 325° (NW) 2,474 5.6 -27.5°
Maximum altitude 22:15:37 47° 253° (WSW) 1,110 2.8 -28.0°
Enters shadow 22:16:01 46° 240° (WSW) 1,121 2.7 -28.0°
